Location: Brno
(49.2000°N, 16.6330°E)
Time: 03:59:39
(UTC+02:00)

Vanguard 3 - Pass Details

Date: 03 August 2021
Orbit: 510 x 3260 km, 33.3° (Epoch: 16 September)

Event Time Altitude Azimuth Distance (km) Brightness Sun altitude
Rises 21:58:20 0° 266° (W) 6,382 12.3 -12.3°
Reaches altitude 10° 22:02:32 10° 260° (W) 5,647 11.9 -12.8°
Maximum altitude 22:18:49 41° 199° (SSW) 4,147 10.4 -14.6°
Enters shadow 22:32:00 19° 144° (SE) 5,246 10.6 -15.9°
Drops below altitude 10° 22:35:41 10° 137° (SE) 5,813 - -16.3°
Sets 22:40:07 0° 131° (SE) 6,576 - -16.7°
